Regional Weather Roundup
Issued by NWS Bismarck, ND

Home | Current Version | Previous Version | Graphics & Text | Print | Product List | Glossary On
Versions: 1 2 3 4 5 6 7 8 9 10 11 12 13 14 15 16 17 18 19 20 21 22 23 24 25 26 27 28 29 30 31 32 33 34 35 36 37 38 39 40 41 42 43 44 45 46 47 48 49 50
000
ASUS43 KBIS 201810
RWRBIS

NWR BROADCAST TEXT
NATIONAL WEATHER SERVICE BISMARCK ND
100 PM CDT FRI APR 20 2018

NOTE: "FAIR" INDICATES FEW OR NO CLOUDS BELOW 12,000 FEET WITH NO
SIGNIFICANT WEATHER AND/OR OBSTRUCTIONS TO VISIBILITY.


CITY           SKY/WX    TMP DP  RH WIND       PRES   REMARKS
WILLISTON      SUNNY     57  32  38 SE13G20   30.19F
MINOT          CLOUDY    54  29  38 SE12      30.27F
MINOT AFB      CLOUDY    55  31  40 S14       30.26F
BISMARCK       PTSUNNY   57  31  37 SE15      30.28F
DICKINSON      MOSUNNY   57  30  35 SE18      30.17F
GARRISON         N/A     51  33  50 E17       30.25F
HETTINGER ARPT PTSUNNY   50  30  46 SE15      30.19F
JAMESTOWN      PTSUNNY   52  30  43 S13       30.35F
CARRINGTON     FAIR      52  32  46 S14G20    30.36F
HAZEN          FAIR      57  30  35 SE15      30.27F
LINTON           N/A    N/A N/A N/A SE15      30.30F
MANDAN         FAIR      55  30  38 SE20      30.27F
OAKES            N/A     52  34  50 SE14      30.38F
RUGBY          FAIR      52  27  37 S12G18    30.32S
STANLEY          N/A     45  37  76 SE14      30.27S HAZE
TIOGA          FAIR      50  39  66 SE14      30.23S
WATFORD CITY   FAIR      54  32  43 S14G20    30.19F
$$

CITY           SKY/WX    TMP DP  RH WIND       PRES   REMARKS
GRAND FORKS    FAIR      50  35  56 SW7       30.40F
GRAND FORKS AF FAIR      52  30  43 S13       30.40S
DEVILS LAKE    FAIR      50  24  36 SE10      30.37S
FARGO          FAIR      53  33  46 S13       30.42S
CANDO          FAIR      54  25  32 S15G21    30.37F
CAVALIER         N/A     57  37  47 SW7G16    30.36F
GRAFTON        FAIR      55  30  38 SW13G18   30.40F
GWINNER          N/A     52  34  50 E7        30.39F
LANGDON        FAIR      55  34  44 S15       30.36S
ROLLA          FAIR      48  32  53 S14       30.34S
WALHALLA       FAIR      57  36  44 W9G17     30.36F
$$

CITY           SKY/WX    TMP DP  RH WIND       PRES   REMARKS
ABERDEEN       PTSUNNY   53  36  52 SE10      30.37F
MOBRIDGE       PTSUNNY   53  33  46 S17       30.26F
BUFFALO          N/A     50  30  46 SE18      30.08S
RAPID CITY     MOSUNNY   56  31  38 S15G23    30.14S
GLASGOW        SUNNY     56  33  42 SE10      30.13F
SIDNEY         SUNNY     58  32  37 S13       30.17F
WOLF POINT     SUNNY     59  34  39 E8        30.14F
GLENDIVE       MOSUNNY   53  33  46 NE5       30.15F
MILES CITY     SUNNY     58  35  42 MISG      30.09F
BAKER          SUNNY     56  33  42 SE15G23   30.13F
$$

CITY           SKY/WX    TMP DP  RH WIND       PRES   REMARKS
BILLINGS       MOSUNNY   56  37  49 NE9       30.09S
GREAT FALLS    SUNNY     58  21  24 W10       30.12F
REGINA         MOSUNNY   48  39  71 SE17G23   30.20S
ESTEVAN        MOSUNNY   55  32  41 E13       30.22F
$$




USA.gov is the U.S. government's official web portal to all federal, state and local government web resources and services.